Weather reports worldwide

Advertisment
Greifswald, Germany (10184): temperature & dewpoint: 08.12.2018 01:00:00 - 14.12.2018 01:00:00 (CET)Greifswald, Germany (10184): temperature 5cm & temperature -5cm: 08.12.2018 01:00:00 - 14.12.2018 01:00:00 (CET)Greifswald, Germany (10184): temperature -20cm & temperature -100cm: 08.12.2018 01:00:00 - 14.12.2018 01:00:00 (CET)Greifswald, Germany (10184): wind speed & gusts: 08.12.2018 01:00:00 - 14.12.2018 01:00:00 (CET)Greifswald, Germany (10184): wind direction: 08.12.2018 01:00:00 - 14.12.2018 01:00:00 (CET)Greifswald, Germany (10184): reduced air pressure: 08.12.2018 01:00:00 - 14.12.2018 01:00:00 (CET)Greifswald, Germany (10184): visibility: 08.12.2018 01:00:00 - 14.12.2018 01:00:00 (CET)Greifswald, Germany (10184): sunshine duration: 08.12.2018 01:00:00 - 14.12.2018 01:00:00 (CET)Greifswald, Germany (10184): precipitation: 08.12.2018 01:00:00 - 14.12.2018 01:00:00 (CET)
Date & Time tt [°C] td [°C] tt 5cm [°C] tt -5cm [°C] tt -20cm [°C] tt -100cm [°C] ff [km/h] ff [kn] fx [km/h] fx [kn] dd ppp [hPa] vv [km] sd [min] rr [mm]
14.12.2018 01:00:00 - - - - - - - - - - - - - - -
14.12.2018 00:00:00 0,5 0,1 -0,1 1,2 2,9 7,1 6 3 8 4 NNW 1025,9 5 0 0,0
13.12.2018 23:00:00 0,4 0,0 -0,1 1,4 3,0 7,1 3 2 9 5 N 1026,0 8 0 0,0
13.12.2018 22:00:00 0,5 0,0 -0,3 1,4 3,2 7,1 4 2 11 6 SE 1025,6 9 0 0,0
13.12.2018 21:00:00 0,7 0,2 0,0 1,7 3,3 7,1 0 0 18 10 N 1025,5 10 0 0,5
13.12.2018 20:00:00 1,2 0,6 1,0 2,2 3,4 7,1 5 3 18 10 SSW 1025,6 8 0 0,0
13.12.2018 19:00:00 1,2 0,8 0,9 2,3 3,4 7,1 2 1 5 3 SSE 1025,3 10 0 0,0
13.12.2018 18:00:00 1,4 1,0 1,2 2,5 3,5 7,1 5 3 13 7 E 1025,4 10 0 0,8
13.12.2018 17:00:00 1,9 1,0 1,7 2,8 3,5 7,1 8 4 14 8 N 1025,5 8 0 0,0
13.12.2018 16:00:00 2,4 1,0 2,0 3,1 3,5 7,1 5 3 11 6 N 1025,5 26 0 0,0
13.12.2018 15:00:00 2,2 0,7 1,9 3,3 3,4 7,1 2 1 16 9 WSW 1025,7 36 0 0,0
13.12.2018 14:00:00 2,6 0,7 2,5 3,6 3,2 7,1 16 8 27 15 ENE 1025,7 9 0 0,0
13.12.2018 13:00:00 3,8 0,5 3,6 3,3 3,1 7,1 6 3 16 9 E 1025,9 40 0 0,0
13.12.2018 12:00:00 3,4 0,9 3,0 2,9 2,9 7,1 9 5 20 11 E 1026,1 40 0 0,0
13.12.2018 11:00:00 3,5 0,8 3,3 2,4 2,8 7,1 13 7 22 12 E 1026,3 34 10 0,0
13.12.2018 10:00:00 2,6 1,5 2,0 1,4 2,8 7,1 12 6 27 15 E 1026,4 30 0 0,0
13.12.2018 09:00:00 0,7 0,4 -0,4 0,8 2,9 7,1 5 3 10 6 E 1026,3 8 0 0,0
13.12.2018 08:00:00 2,4 1,2 1,1 1,2 2,9 7,1 8 4 26 14 E 1026,4 22 0 0,0
13.12.2018 07:00:00 2,6 1,9 1,8 1,1 3,0 7,1 11 6 17 9 ENE 1026,0 30 0 0,1
13.12.2018 06:00:00 1,8 1,1 1,1 1,0 3,2 7,1 9 5 16 8 N 1026,5 25 0 0,0
13.12.2018 05:00:00 1,1 0,3 -0,1 1,1 3,4 7,1 10 6 18 10 NNW 1026,6 40 0 0,0
13.12.2018 04:00:00 0,4 -0,8 -2,4 1,2 3,6 7,1 8 4 13 7 NNW 1027,0 50 0 0,0
13.12.2018 03:00:00 1,5 -0,1 -0,2 1,6 3,8 7,2 9 5 24 13 N 1027,4 50 0 0,0
13.12.2018 02:00:00 1,9 0,2 0,5 2,4 4,0 7,2 12 7 25 13 NNE 1027,5 50 0 0,0
13.12.2018 01:00:00 2,8 1,0 2,2 3,1 4,0 7,2 14 7 33 18 NNE 1027,9 35 0 0,0
13.12.2018 00:00:00 3,7 0,9 3,0 3,3 4,0 7,2 16 9 30 16 NE 1027,9 40 0 0,0
12.12.2018 23:00:00 3,9 1,1 3,3 3,3 4,1 7,2 18 10 29 16 NE 1028,0 65 0 0,0
12.12.2018 22:00:00 3,8 1,9 3,2 3,4 4,1 7,2 17 9 33 18 NE 1028,0 50 0 0,0
12.12.2018 21:00:00 3,7 2,5 3,1 3,4 4,1 7,2 18 10 34 18 NE 1027,8 45 0 0,5
12.12.2018 20:00:00 3,7 3,0 3,3 3,3 4,1 7,2 22 12 34 18 ENE 1027,8 1,5 0 1,3
12.12.2018 19:00:00 4,0 2,3 3,1 3,2 4,2 7,2 18 10 32 18 ENE 1027,7 40 0 0,3
12.12.2018 18:00:00 3,5 2,2 2,7 3,2 4,3 7,2 18 10 34 19 NE 1027,5 18 0 0,0
12.12.2018 17:00:00 2,4 1,7 0,4 3,4 4,4 7,2 9 5 16 8 NE 1027,2 30 0 0,0
12.12.2018 16:00:00 3,0 2,2 2,4 4,0 4,5 7,2 9 5 14 8 NE 1026,9 12 0 0,0
12.12.2018 15:00:00 4,0 2,7 3,2 4,7 4,4 7,2 10 5 20 11 NNE 1026,6 35 0 0,0
12.12.2018 14:00:00 4,6 2,4 4,5 5,0 4,2 7,2 12 7 20 11 NE 1026,3 40 5 0,0
12.12.2018 13:00:00 5,1 2,1 6,3 4,4 4,1 7,2 16 9 35 19 E 1026,1 35 17 0,0
12.12.2018 12:00:00 4,8 2,6 4,4 4,2 4,0 7,2 20 11 41 22 NE 1025,8 40 0 0,0
12.12.2018 11:00:00 5,0 2,6 4,6 3,8 3,9 7,2 23 12 36 19 NE 1025,7 26 0 0,0
12.12.2018 10:00:00 4,8 2,3 4,3 3,4 3,9 7,2 18 10 33 18 NNE 1025,4 40 0 0,0
12.12.2018 09:00:00 4,3 2,1 3,2 3,2 3,9 7,2 15 8 31 17 NNE 1025,0 30 0 0,0
12.12.2018 08:00:00 4,4 2,7 3,5 3,4 3,9 7,2 17 9 32 18 NE 1024,3 30 0 0,0
12.12.2018 07:00:00 4,2 3,0 3,4 3,3 3,8 7,2 17 9 31 17 NE 1024,0 30 0 0,2
12.12.2018 06:00:00 4,1 2,9 3,3 3,2 3,8 7,2 11 6 25 14 N 1023,4 35 0 0,4
12.12.2018 05:00:00 4,0 2,8 3,5 3,1 3,8 7,2 11 6 17 9 N 1023,0 40 0 0,0
12.12.2018 04:00:00 3,7 2,7 3,1 2,8 3,9 7,2 11 6 17 9 NNW 1022,5 45 0 0,1
12.12.2018 03:00:00 3,7 2,4 2,9 3,0 3,9 7,2 11 6 18 10 NNW 1022,3 40 0 0,0
12.12.2018 02:00:00 4,1 3,1 3,4 3,3 3,9 7,2 10 6 32 17 N 1021,4 35 0 0,9
12.12.2018 01:00:00 4,3 3,0 3,6 3,3 3,8 7,2 16 9 25 13 N 1021,0 12 0 0,3
12.12.2018 00:00:00 4,3 2,6 3,5 3,2 3,8 7,2 16 9 27 15 NNW 1020,6 35 0 0,3
11.12.2018 23:00:00 3,8 2,2 3,1 2,9 3,8 7,3 13 7 21 11 NW 1020,1 35 0 0,0
11.12.2018 22:00:00 4,0 2,0 2,8 2,7 3,9 7,3 15 8 24 13 N 1019,8 50 0 0,1
11.12.2018 21:00:00 3,6 1,4 2,6 2,7 4,0 7,3 9 5 21 11 NNW 1019,4 5 0 0,0
11.12.2018 20:00:00 3,7 1,6 2,6 2,7 4,1 7,3 16 9 28 15 N 1018,7 60 0 0,1
11.12.2018 19:00:00 3,6 0,8 2,7 2,7 4,2 7,3 16 9 31 17 NNW 1018,2 55 0 0,0
11.12.2018 18:00:00 4,0 1,1 3,2 3,4 4,3 7,3 20 11 33 18 N 1017,4 50 0 0,0
11.12.2018 17:00:00 4,3 2,2 3,4 3,7 4,3 7,3 16 9 29 16 NNW 1016,7 50 0 0,0
11.12.2018 16:00:00 4,4 2,4 4,0 3,8 4,2 7,3 17 9 29 16 NNW 1016,0 40 0 0,0
11.12.2018 15:00:00 4,4 2,1 4,1 3,9 4,2 7,3 16 9 29 16 NNW 1015,3 40 0 0,0
11.12.2018 14:00:00 4,5 1,9 4,1 3,9 4,1 7,3 16 8 35 19 NNW 1014,9 50 0 0,0
11.12.2018 13:00:00 4,7 1,9 4,4 3,8 4,0 7,3 17 9 25 14 NNW 1014,1 50 0 0,0
11.12.2018 12:00:00 4,4 1,9 4,1 3,7 4,0 7,3 15 8 29 16 NNW 1013,7 38 0 0,0
11.12.2018 11:00:00 4,2 2,1 4,0 3,3 3,9 7,3 17 9 30 16 N 1013,3 50 0 0,0
11.12.2018 10:00:00 3,6 0,9 3,3 2,8 4,0 7,3 11 6 22 12 NNW 1012,8 55 0 0,0
11.12.2018 09:00:00 3,3 -0,7 2,8 2,6 4,0 7,3 13 7 27 15 NNW 1012,2 58 0 0,0
11.12.2018 08:00:00 3,3 -0,8 2,6 2,8 4,1 7,3 19 11 39 21 N 1011,3 68 0 0,0
11.12.2018 07:00:00 3,6 -0,4 3,1 3,0 4,2 7,3 23 12 47 25 N 1010,3 50 0 0,0
11.12.2018 06:00:00 3,8 0,3 3,2 3,2 4,3 7,3 21 11 41 22 NNW 1009,4 55 0 0,0
11.12.2018 05:00:00 4,1 1,4 3,7 3,4 4,3 7,3 19 10 41 22 NNW 1008,4 50 0 0,0
11.12.2018 04:00:00 3,9 2,0 3,2 3,5 4,3 7,3 23 12 53 28 NNW 1007,6 40 0 1,2
11.12.2018 03:00:00 4,3 2,5 3,5 3,6 4,3 7,3 22 12 47 25 NW 1006,8 6 0 1,7
11.12.2018 02:00:00 4,3 2,2 3,4 3,6 4,3 7,3 26 14 51 28 WNW 1006,2 10 0 0,4
11.12.2018 01:00:00 5,6 1,0 4,9 3,5 4,3 7,3 29 16 48 26 WNW 1006,1 33 0 0,0
11.12.2018 00:00:00 5,4 1,2 4,4 3,4 4,3 7,3 23 12 36 20 W 1006,2 31 0 0,0
10.12.2018 23:00:00 5,1 1,4 4,5 3,3 4,3 7,3 20 11 36 20 W 1006,3 29 0 0,0
10.12.2018 22:00:00 5,0 1,3 4,3 3,2 4,3 7,3 22 12 34 18 W 1006,4 28 0 0,0
10.12.2018 21:00:00 4,7 1,3 3,8 3,0 4,4 7,3 18 10 29 16 W 1006,2 26 0 0,0
10.12.2018 20:00:00 4,6 1,5 3,8 3,0 4,6 7,3 17 9 27 15 W 1006,0 25 0 0,0
10.12.2018 19:00:00 3,7 2,0 2,5 3,0 4,7 7,3 12 6 23 12 WSW 1005,8 22 0 0,0
10.12.2018 18:00:00 4,0 1,4 2,6 3,4 4,9 7,2 14 8 32 17 W 1005,8 33 0 0,0
10.12.2018 17:00:00 4,3 1,7 2,9 4,1 5,0 7,2 22 12 39 21 W 1005,3 40 0 0,0
10.12.2018 16:00:00 5,0 1,8 3,6 4,5 5,0 7,2 20 11 48 26 W 1005,2 30 0 0,1
10.12.2018 15:00:00 5,4 1,3 4,6 5,0 4,8 7,2 26 14 45 24 W 1005,2 30 3 0,0
10.12.2018 14:00:00 5,9 2,0 5,4 4,7 4,8 7,2 30 16 48 26 W 1005,0 10 2 0,9
10.12.2018 13:00:00 5,2 1,4 3,9 4,4 4,7 7,2 30 16 51 28 W 1005,4 22 0 0,0
10.12.2018 12:00:00 6,0 0,1 5,6 4,3 4,7 7,2 26 14 50 27 WNW 1005,4 30 0 0,0
10.12.2018 11:00:00 5,9 0,5 5,4 4,0 4,6 7,2 29 16 53 28 W 1005,1 40 0 0,0
10.12.2018 10:00:00 5,9 -0,1 5,3 3,8 4,6 7,2 26 14 53 28 WNW 1004,7 39 0 0,0
10.12.2018 09:00:00 5,6 1,0 5,0 3,7 4,6 7,2 25 14 45 24 WNW 1004,1 27 0 0,0
10.12.2018 08:00:00 5,7 0,7 5,0 3,5 4,7 7,2 24 13 45 25 W 1003,6 24 0 0,0
10.12.2018 07:00:00 5,7 0,6 4,9 3,5 4,7 7,2 30 16 46 25 WNW 1003,0 25 0 0,0
10.12.2018 06:00:00 5,4 1,0 4,1 3,4 4,8 7,2 26 14 43 23 W 1002,2 28 0 0,0
10.12.2018 05:00:00 5,4 0,9 4,7 3,3 4,9 7,2 24 13 38 21 W 1001,7 30 0 0,0
10.12.2018 04:00:00 4,8 0,7 3,7 3,3 5,1 7,2 21 11 37 20 WNW 1001,2 33 0 0,0
10.12.2018 03:00:00 5,2 1,3 4,0 3,7 5,2 7,2 23 13 41 22 W 1000,5 24 0 0,0
10.12.2018 02:00:00 5,5 2,5 4,8 3,6 5,4 7,2 18 10 29 15 W 999,8 33 0 0,0
10.12.2018 01:00:00 4,0 1,3 2,7 3,5 5,6 7,2 14 8 29 15 W 999,2 37 0 0,0
10.12.2018 00:00:00 4,3 1,0 2,8 4,2 5,8 7,2 18 10 36 20 WNW 998,6 44 0 0,0
09.12.2018 23:00:00 4,7 1,7 3,1 4,8 6,0 7,2 24 13 48 26 WNW 997,1 40 0 0,0
09.12.2018 22:00:00 5,6 4,0 4,8 5,5 6,0 7,2 25 13 55 30 NW 995,4 25 0 0,6
09.12.2018 21:00:00 6,3 4,3 5,4 5,6 6,1 7,2 25 13 42 23 WNW 993,6 11 0 0,1
09.12.2018 20:00:00 6,0 4,2 5,1 5,7 6,1 7,2 23 12 46 25 W 992,3 30 0 0,6
09.12.2018 19:00:00 6,9 4,6 6,1 5,8 6,2 7,2 20 11 34 18 W 991,3 30 0 0,0
09.12.2018 18:00:00 6,7 5,2 5,8 6,0 6,2 7,1 21 12 36 19 W 990,6 33 0 0,3
09.12.2018 17:00:00 7,1 4,7 6,0 6,1 6,3 7,1 20 11 34 18 WSW 990,0 18 0 0,2
09.12.2018 16:00:00 7,3 4,5 6,6 6,2 6,3 7,1 15 8 29 16 WSW 989,5 38 0 0,0
09.12.2018 15:00:00 7,6 5,2 7,0 6,6 6,3 7,1 16 9 32 17 W 989,2 40 1 0,0
09.12.2018 14:00:00 7,7 5,2 7,3 6,8 6,2 7,1 18 10 31 17 W 988,4 35 0 0,0
09.12.2018 13:00:00 7,7 4,9 7,6 6,9 6,1 7,1 20 11 35 19 WSW 987,9 6 0 0,0
09.12.2018 12:00:00 7,4 5,0 7,4 6,5 6,0 7,1 18 10 32 18 WSW 987,7 30 0 0,0
09.12.2018 11:00:00 6,9 4,8 6,7 6,2 5,9 7,1 19 10 38 21 WSW 987,4 40 0 0,0
09.12.2018 10:00:00 7,0 5,1 6,5 6,0 5,9 7,1 19 10 34 18 WSW 986,8 22 0 0,0
09.12.2018 09:00:00 6,8 5,7 6,2 5,9 5,9 7,1 14 8 25 14 WSW 986,0 22 0 0,0
09.12.2018 08:00:00 6,7 5,5 6,1 5,9 5,9 7,1 16 9 30 16 W 985,0 18 0 0,5
09.12.2018 07:00:00 7,0 6,3 6,4 6,0 5,8 7,1 16 9 26 14 W 984,2 5 0 1,1
09.12.2018 06:00:00 7,3 6,3 6,5 5,9 5,8 7,1 11 6 26 14 SW 983,3 4,7 0 0,2
09.12.2018 05:00:00 7,0 6,2 6,4 5,7 5,8 7,1 16 9 33 18 SSW 983,3 5 0 2,5
09.12.2018 04:00:00 6,5 5,7 5,9 5,5 5,8 7,1 12 7 24 13 SSW 984,3 2,2 0 3,3
09.12.2018 03:00:00 6,0 5,3 5,5 5,4 5,8 7,0 11 6 31 17 S 985,8 1,3 0 3,4
09.12.2018 02:00:00 6,6 4,5 5,5 5,2 5,9 7,0 19 10 39 21 SSW 987,3 4,7 0 0,2
09.12.2018 01:00:00 7,1 3,6 6,0 5,2 6,0 7,0 20 11 40 22 SSW 988,4 26 0 0,0
09.12.2018 00:00:00 7,5 3,6 6,4 5,4 6,1 7,0 19 10 46 25 SSW 989,7 31 0 0,0
08.12.2018 23:00:00 7,8 4,3 6,6 5,9 6,1 7,0 23 12 44 24 SW 990,4 33 0 0,0
08.12.2018 22:00:00 8,2 4,6 7,4 5,9 6,1 7,0 24 13 50 27 SW 990,9 27 0 0,0
08.12.2018 21:00:00 8,2 4,8 7,6 5,9 6,1 7,0 22 12 51 28 SW 991,2 37 0 0,0
08.12.2018 20:00:00 8,2 4,6 7,3 6,0 6,1 7,0 23 12 48 26 SW 991,3 40 0 0,0
08.12.2018 19:00:00 8,1 4,8 7,4 6,1 6,1 7,0 24 13 51 27 SSW 991,6 34 0 0,0
08.12.2018 18:00:00 7,3 5,4 6,2 6,0 6,1 7,0 20 11 44 24 SSW 992,3 5 0 0,0
08.12.2018 17:00:00 7,5 4,6 6,8 6,0 6,1 7,0 26 14 48 26 SSW 992,7 29 0 0,0
08.12.2018 16:00:00 7,8 4,2 7,2 6,0 6,1 7,0 26 14 47 25 SSW 993,1 40 0 0,0
08.12.2018 15:00:00 7,3 4,3 6,9 6,0 6,1 6,9 20 11 46 25 SSW 993,4 30 0 0,0
08.12.2018 14:00:00 6,9 4,2 6,2 6,0 6,0 6,9 23 12 44 24 SSW 994,0 18 0 0,0
08.12.2018 13:00:00 6,7 3,4 6,5 5,9 6,0 6,9 24 13 45 25 SSW 994,5 27 0 0,0
08.12.2018 12:00:00 7,0 3,4 6,3 5,8 6,0 6,9 22 12 47 26 SSW 994,8 23 0 0,0
08.12.2018 11:00:00 6,5 3,3 6,0 5,4 6,1 6,9 22 12 41 22 SSW 995,6 18 0 0,6
08.12.2018 10:00:00 6,1 3,2 4,8 5,3 6,2 6,9 21 11 51 27 SW 996,5 7 0 0,1
08.12.2018 09:00:00 6,2 2,5 5,7 5,0 6,3 6,9 23 12 42 23 SSW 996,7 30 0 0,0
08.12.2018 08:00:00 6,2 2,5 5,5 5,0 6,6 6,9 21 11 38 21 SW 997,5 29 0 0,0
08.12.2018 07:00:00 6,0 2,7 4,9 5,4 6,8 6,9 18 10 38 20 SW 997,1 25 0 0,0
08.12.2018 06:00:00 6,5 3,1 5,7 6,0 7,0 6,9 22 12 43 23 WSW 996,8 23 0 0,0
08.12.2018 05:00:00 7,0 4,0 6,3 6,6 7,2 6,9 24 13 44 24 WSW 996,3 22 0 0,0
08.12.2018 04:00:00 6,9 4,5 6,3 6,9 7,3 6,9 20 11 43 23 WSW 996,1 28 0 0,0
08.12.2018 03:00:00 7,2 4,8 6,1 7,3 7,5 6,9 26 14 50 27 W 995,3 17 0 0,1
08.12.2018 02:00:00 7,1 4,9 6,0 8,0 7,5 6,9 36 19 66 35 W 994,0 16 0 0,6
08.12.2018 01:00:00 10,1 8,6 9,1 8,5 7,5 6,9 18 10 37 20 SW 992,0 10 0 0,1

tt = temperature
td = dewpoint
tt 5cm = temperature 5cm
tt -5cm = temperature -5cm
tt -20cm = temperature -20cm
tt -100cm = temperature -100cm
ff = wind speed
fx = gusts
dd = wind direction
ppp = reduced air pressure
vv = visibility
sd = sunshine duration
rr = precipitation

Next stations